[[{"header":{"parameterUnit":"m.s-1","parameterCategory":2,"la1":30.2991,"la2":30.254,"lo1":-89.0895,"lo2":-89.0444,"dy":0.0017,"dx":0.0017,"nx":28,"ny":28,"refTime":"2024-11-29T03:00:00:Z","depth":"0","parameterNumber":2,"parameterNumberName":"U-component_of_CURRENTS"},"data":[0,0,0,0,0,0,0,0,0,0,0,0,0,0,0,0,0,0,0,0,0,0,0,0,0,0,0,0,0,0,0,0,0,0,0,0,0,0,0,0,0,0,0,0,0,0,0,0,0,0,0,0,0,0,0,0,0,0,0.1952,0.1952,0,0.1931,0.1931,0.193,0.1905,0.1905,0.1905,0.1904,0.1868,0.1867,0.1866,0,0,0,0,0,0,0,0,0,0,0,0,0,0.1965,0.1965,0.1952,0.1952,0.1952,0.1931,0.1931,0.193,0.1905,0.1905,0.1905,0.1904,0.1868,0.1867,0.1866,0,0,0,0,0,0,0,0,0,0,0,0,0,0.1951,0.1965,0.1952,0.1939,0.1937,0.1932,0.1931,0.193,0.1905,0.1905,0.1905,0.1904,0.1869,0.1867,0.1866,0.1864,0,0,0.1862,0.1862,0,0,0,0,0,0,0,0,0.1952,0.195,0.1941,0.194,0.1938,0.1923,0.1922,0.1908,0.1905,0.1915,0.1904,0.1904,0.1887,0.1884,0.1877,0.1862,0.186,0.1862,0.1862,0.1861,0.1861,0,0,0,0,0,0,0,0.1953,0.1951,0.1941,0.1941,0.1939,0.1933,0.193,0.1919,0.19,0.1914,0.1913,0.1914,0.1886,0.1878,0.1876,0.186,0.1862,0.1861,0.1861,0.186,0.187,0.1871,0,0,0,0,0,0,0.1961,0.1952,0.1942,0.1941,0.1948,0.1933,0.193,0.1926,0.19,0.1897,0.1915,0.1913,0.1881,0.1878,0.1875,0.1891,0.1861,0.186,0.1859,0.1869,0.187,0.1871,0,0,0,0,0,0,0.1961,0.196,0.1943,0.1948,0.1946,0.1933,0.1929,0.1926,0.1923,0.1902,0.1898,0.1916,0.188,0.1877,0.1874,0.1889,0.1859,0.1858,0.1868,0.1869,0.1871,0.1911,0,0,0,0,0,0,0.1962,0.196,0.196,0.1949,0.1946,0.1946,0.1929,0.1926,0.1925,0.1923,0.1902,0.1898,0.188,0.1876,0.1873,0.1887,0.1857,0.1866,0.1868,0.187,0.1909,0.1914,0.1918,0,0,0,0,0,0.1962,0.1963,0.196,0.1959,0.1946,0.1946,0.1944,0.1932,0.1926,0.1928,0.1915,0.1898,0.1885,0.1875,0.1871,0.1886,0.1865,0.1868,0.187,0.1906,0.1913,0.1918,0,0,0,0,0,0,0.1964,0.196,0.1956,0.1954,0.1955,0.1943,0.1944,0.1938,0.1929,0.1927,0.1906,0.1901,0.1907,0.1893,0.1882,0.1896,0.1875,0.1877,0.1904,0.191,0.1915,0.1924,0.1856,0,0,0,0,0,0.1966,0.1966,0.1964,0.1963,0.1965,0.1956,0.1955,0.195,0.1942,0.1938,0.1924,0.1914,0.1913,0.1908,0.1902,0.1904,0.1905,0.1914,0.1919,0.1923,0.1929,0.1949,0.1957,0.1878,0.1878,0.1878,0,0,0.1965,0.1965,0.1963,0.1964,0.1961,0.1968,0.1954,0.1957,0.1963,0.1936,0.1938,0.193,0.1919,0.1924,0.1926,0.1913,0.1947,0.1926,0.1929,0.1933,0.1953,0.196,0.1967,0.188,0.188,0.1879,0,0,0.197,0.1966,0.1971,0.1976,0.198,0.1978,0.1983,0.1978,0.1977,0.1979,0.1968,0.1973,0.1959,0.196,0.1958,0.1988,0.1974,0.1985,0.2013,0.2032,0.2039,0.2045,0.2058,0.2064,0.1985,0.1985,0.1985,0,0.1971,0.1974,0.1973,0.1984,0.1989,0.1986,0.1996,0.1998,0.1993,0.1998,0.1985,0.1989,0.1979,0.1998,0.2008,0.1999,0.2004,0.1989,0.2039,0.2045,0.205,0.2062,0.2068,0.1987,0.1987,0.1987,0.1986,0,0.1981,0.1987,0.1992,0.2004,0.2011,0.2019,0.2026,0.2034,0.2032,0.2032,0.2049,0.204,0.2042,0.2044,0.2032,0.2068,0.2057,0.2044,0.2023,0.206,0.207,0.2077,0.199,0.199,0.1989,0.1988,0,0,0.1973,0.1995,0.1997,0.2003,0.2023,0.2025,0.2049,0.2065,0.2077,0.2081,0.2099,0.2106,0.2103,0.2102,0.2094,0.2111,0.2152,0.2095,0.2094,0.2106,0.2193,0.2178,0.2183,0.2146,0.2148,0.2149,0.2186,0,0.1982,0.2,0.2013,0.203,0.2038,0.2053,0.2071,0.2087,0.2099,0.2116,0.2126,0.2136,0.2124,0.2126,0.2146,0.2151,0.217,0.2143,0.2157,0.2157,0.2138,0.2191,0.2109,0.2135,0.2192,0.2193,0.2194,0,0.1986,0.1999,0.2016,0.2037,0.2043,0.2053,0.2081,0.2098,0.2133,0.2144,0.2169,0.2173,0.2206,0.2184,0.2223,0.2206,0.2207,0.2208,0.2209,0.2185,0.2154,0.2107,0.2144,0.2085,0.2203,0.2203,0.2202,0,0.197,0.1998,0.2009,0.2017,0.2044,0.2055,0.2069,0.2103,0.2121,0.2164,0.2181,0.2217,0.2233,0.2251,0.2262,0.2244,0.2302,0.2274,0.2263,0.2261,0.219,0.218,0.217,0.2305,0.2305,0.2305,0.2305,0,0.1967,0.1974,0.1999,0.2002,0.2013,0.2039,0.2056,0.2083,0.2125,0.2148,0.2189,0.2218,0.2251,0.2285,0.2286,0.2304,0.2324,0.2283,0.2277,0.2202,0.2193,0.2136,0.2077,0.2306,0.2306,0.2305,0.2305,0,0.194,0.1961,0.1969,0.1995,0.2002,0.2006,0.2038,0.2054,0.2102,0.2138,0.2154,0.2228,0.2275,0.2306,0.2342,0.2332,0.2278,0.2345,0.2255,0.2238,0.216,0.2105,0.2045,0.197,0.2337,0.2337,0.2337,0,0.1925,0.1929,0.195,0.1951,0.1959,0.1972,0.1982,0.2031,0.2056,0.2139,0.2158,0.2228,0.2268,0.2332,0.2341,0.2358,0.2269,0.2277,0.2229,0.2162,0.2097,0.2036,0.1972,0.2149,0.2148,0.2147,0.2146,0,0.1893,0.1902,0.191,0.191,0.1916,0.1921,0.1944,0.1962,0.2026,0.2061,0.2124,0.2168,0.2256,0.2252,0.2289,0.2285,0.2158,0.2251,0.2202,0.1973,0.1884,0.1806,0.2118,0.2134,0.2135,0.2136,0.2137,0.2137,0.1864,0.1859,0.1865,0.1861,0.1867,0.186,0.1834,0.1876,0.1897,0.1927,0.2037,0.2068,0.2134,0.2187,0.2179,0.2118,0.2091,0.2033,0.1981,0.1935,0.1832,0.2125,0.2122,0.2123,0.2124,0.2125,0.2125,0,0.1813,0.1814,0.1812,0.1794,0.1767,0.1789,0.1795,0.1756,0.1745,0.1821,0.1855,0.1912,0.1929,0.1976,0.1947,0.185,0.1795,0.1785,0.1668,0.1623,0.1907,0.1869,0.1786,0.1786,0.1786,0.1786,0.1786,0.1786,0.1784,0.176,0.1757,0.1692,0.1676,0.1595,0.1574,0.1545,0.1569,0.1567,0.1588,0.1642,0.1719,0.1727,0.1649,0.1625,0.1478,0.1434,0.1413,0.1603,0.1622,0.164,0.1594,0.1455,0.1454,0.1096,0.1093,0.1091]},{"header":{"parameterUnit":"m.s-1","parameterCategory":2,"la1":30.2991,"la2":30.254,"lo1":-89.0895,"lo2":-89.0444,"dy":0.0017,"dx":0.0017,"nx":28,"ny":28,"refTime":"2024-11-29T03:00:00:Z","depth":"0","parameterNumber":3,"parameterNumberName":"V-component_of_CURRENTS"},"data":[0,0,0,0,0,0,0,0,0,0,0,0,0,0,0,0,0,0,0,0,0,0,0,0,0,0,0,0,0,0,0,0,0,0,0,0,0,0,0,0,0,0,0,0,0,0,0,0,0,0,0,0,0,0,0,0,0,0,-0.0173,-0.0173,0,-0.0193,-0.0193,-0.0194,-0.0204,-0.0204,-0.0204,-0.0204,-0.0218,-0.0219,-0.0219,0,0,0,0,0,0,0,0,0,0,0,0,0,-0.0159,-0.0159,-0.0173,-0.0173,-0.0174,-0.0193,-0.0193,-0.0194,-0.0204,-0.0204,-0.0204,-0.0204,-0.0218,-0.0219,-0.0219,0,0,0,0,0,0,0,0,0,0,0,0,0,-0.017,-0.0159,-0.0173,-0.0181,-0.0182,-0.0193,-0.0193,-0.0194,-0.0204,-0.0204,-0.0204,-0.0204,-0.0218,-0.0219,-0.0219,-0.0223,0,0,-0.0221,-0.0221,0,0,0,0,0,0,0,0,-0.017,-0.0171,-0.018,-0.018,-0.0181,-0.0196,-0.0194,-0.0203,-0.0204,-0.0196,-0.0204,-0.0204,-0.021,-0.0211,-0.0215,-0.0223,-0.0224,-0.0221,-0.0221,-0.0222,-0.0222,0,0,0,0,0,0,0,-0.0169,-0.017,-0.0181,-0.018,-0.0181,-0.0189,-0.019,-0.0196,-0.0203,-0.0196,-0.0197,-0.0199,-0.0211,-0.0215,-0.0216,-0.0224,-0.0221,-0.0222,-0.0222,-0.0222,-0.0228,-0.0228,0,0,0,0,0,0,-0.0165,-0.0169,-0.0181,-0.0182,-0.0175,-0.0189,-0.0191,-0.0191,-0.0203,-0.0205,-0.0199,-0.02,-0.0214,-0.0215,-0.0216,-0.0208,-0.0222,-0.0222,-0.0222,-0.0229,-0.0228,-0.0228,0,0,0,0,0,0,-0.0165,-0.0166,-0.018,-0.0176,-0.0178,-0.0189,-0.019,-0.0192,-0.0194,-0.0205,-0.0207,-0.0199,-0.0214,-0.0216,-0.0217,-0.0209,-0.0222,-0.0223,-0.0229,-0.0229,-0.0228,-0.0199,0,0,0,0,0,0,-0.0165,-0.0166,-0.0165,-0.0176,-0.0178,-0.0181,-0.019,-0.0192,-0.0195,-0.0196,-0.0206,-0.0207,-0.0214,-0.0216,-0.0217,-0.021,-0.0223,-0.0229,-0.0229,-0.0228,-0.02,-0.0198,-0.0196,0,0,0,0,0,-0.0164,-0.0159,-0.0165,-0.0166,-0.0177,-0.0181,-0.0182,-0.019,-0.0195,-0.0193,-0.02,-0.0207,-0.0215,-0.0216,-0.0218,-0.0211,-0.0229,-0.0229,-0.0228,-0.0201,-0.0198,-0.0196,0,0,0,0,0,0,-0.0149,-0.016,-0.0166,-0.0165,-0.0171,-0.0182,-0.0181,-0.0188,-0.0193,-0.0193,-0.0204,-0.0206,-0.0205,-0.0213,-0.0214,-0.0212,-0.0223,-0.0223,-0.0202,-0.02,-0.0197,-0.0185,-0.0224,0,0,0,0,0,-0.0147,-0.0148,-0.0158,-0.0157,-0.0159,-0.0171,-0.0174,-0.0179,-0.0185,-0.0187,-0.0195,-0.0202,-0.0206,-0.0206,-0.0213,-0.021,-0.0219,-0.0207,-0.0205,-0.0203,-0.0194,-0.0203,-0.02,-0.0227,-0.0227,-0.0227,0,0,-0.0141,-0.0147,-0.0147,-0.0154,-0.016,-0.0154,-0.0172,-0.0173,-0.0166,-0.0187,-0.0181,-0.0195,-0.0204,-0.0202,-0.0202,-0.0206,-0.0202,-0.0202,-0.0201,-0.0193,-0.0202,-0.0199,-0.0197,-0.0227,-0.0227,-0.0227,0,0,-0.0126,-0.0134,-0.0129,-0.0132,-0.0138,-0.0143,-0.0141,-0.0152,-0.0154,-0.0154,-0.0167,-0.0173,-0.0182,-0.0184,-0.0187,-0.0176,-0.0192,-0.0181,-0.0156,-0.0164,-0.0162,-0.016,-0.0174,-0.0173,-0.0178,-0.0177,-0.0177,0,-0.0117,-0.011,-0.0127,-0.012,-0.0115,-0.0134,-0.012,-0.0126,-0.0135,-0.0132,-0.0147,-0.0158,-0.0171,-0.016,-0.016,-0.0169,-0.018,-0.0165,-0.0161,-0.0159,-0.0157,-0.0172,-0.0172,-0.0176,-0.0176,-0.0176,-0.0177,0,-0.0097,-0.009,-0.0085,-0.0081,-0.008,-0.0071,-0.0079,-0.0078,-0.0087,-0.0094,-0.0094,-0.0116,-0.0121,-0.0129,-0.0142,-0.0135,-0.0149,-0.0159,-0.0166,-0.0153,-0.0169,-0.017,-0.0174,-0.0174,-0.0175,-0.0175,0,0,-0.0073,-0.0071,-0.0066,-0.0054,-0.0056,-0.0049,-0.0038,-0.003,-0.0015,-0.0039,-0.0023,-0.0046,-0.0065,-0.007,-0.009,-0.0099,-0.0107,-0.0123,-0.0124,-0.0133,-0.013,-0.0145,-0.0147,-0.0118,-0.0118,-0.0117,-0.0148,0,-0.0047,-0.0022,-0.0028,0.0003,0.0018,0.0009,0.0026,0.0028,0.0021,0.0028,0.0,-0.0,-0.004,-0.0043,-0.006,-0.009,-0.0105,-0.0098,-0.0143,-0.0145,-0.0157,-0.0147,-0.0154,-0.0181,-0.0148,-0.0148,-0.0148,0,-0.0018,-0.0004,0.0028,0.0054,0.006,0.0073,0.01,0.011,0.011,0.0104,0.009,0.0065,0.0048,0.0009,-0.0038,-0.0033,-0.0079,-0.0109,-0.0111,-0.0133,-0.016,-0.0188,-0.0183,-0.0292,-0.0149,-0.0149,-0.0149,0,0.0016,0.0041,0.007,0.0077,0.0097,0.0112,0.0124,0.0132,0.0154,0.0147,0.0159,0.0125,0.0118,0.0058,-0.0015,-0.0026,-0.0069,-0.0092,-0.0151,-0.0153,-0.017,-0.0174,-0.0271,-0.0129,-0.0129,-0.0129,-0.0129,0,0.0052,0.0078,0.0086,0.0104,0.0147,0.0144,0.0187,0.0193,0.021,0.0245,0.0196,0.0218,0.013,0.0091,0.0011,-0.0066,-0.0052,-0.0141,-0.0158,-0.0162,-0.0164,-0.0269,-0.0327,-0.013,-0.013,-0.0129,-0.0129,0,0.0084,0.0089,0.0127,0.0152,0.0163,0.0191,0.0231,0.0265,0.0268,0.0312,0.0313,0.0293,0.0243,0.0148,0.0059,-0.0022,-0.0164,-0.0138,-0.014,-0.0156,-0.0313,-0.0369,-0.0455,-0.0511,-0.0204,-0.0205,-0.0205,0,0.0103,0.0124,0.0162,0.019,0.0201,0.024,0.0275,0.0292,0.0333,0.0365,0.0398,0.0363,0.0353,0.0213,0.0065,-0.0076,-0.0179,-0.0185,-0.0209,-0.0319,-0.0394,-0.0419,-0.0462,-0.0226,-0.0227,-0.0227,-0.0228,0,0.0145,0.0154,0.0184,0.0237,0.0277,0.0324,0.0373,0.0415,0.0444,0.0483,0.0527,0.0519,0.0389,0.0257,0.0059,-0.0052,-0.0264,-0.0199,-0.0311,-0.0415,-0.045,-0.0512,-0.0216,-0.0232,-0.0231,-0.0231,-0.0231,-0.0231,0.0178,0.0204,0.0241,0.029,0.0339,0.0399,0.0434,0.0496,0.0563,0.0606,0.0615,0.0601,0.0409,0.0147,-0.0006,-0.0307,-0.0294,-0.0403,-0.046,-0.0474,-0.0533,-0.0247,-0.0282,-0.0282,-0.0282,-0.0282,-0.0282,0,0.0221,0.0245,0.0294,0.0349,0.0399,0.0417,0.0496,0.0524,0.0596,0.064,0.0665,0.0545,0.0319,0.0055,-0.0313,-0.0524,-0.0599,-0.0652,-0.0701,-0.0732,-0.0479,-0.0486,-0.0568,-0.0568,-0.0568,-0.0568,-0.0568,-0.0568,0.0247,0.0291,0.0307,0.0383,0.0421,0.0468,0.0504,0.0554,0.0589,0.0596,0.0564,0.052,0.0258,-0.0242,-0.0671,-0.0777,-0.094,-0.0958,-0.1038,-0.0884,-0.0865,-0.0847,-0.0868,-0.103,-0.103,-0.1263,-0.1265,-0.1267]}],[{"header":{"parameterUnit":"m.s-1","parameterCategory":2,"la1":30.2991,"la2":30.254,"lo1":-89.0895,"lo2":-89.0444,"dy":0.0017,"dx":0.0017,"nx":28,"ny":28,"refTime":"2024-11-29T03:00:00:Z","depth":"2","parameterNumber":2,"parameterNumberName":"U-component_of_CURRENTS"},"data":[0,0,0,0,0,0,0,0,0,0,0,0,0,0,0,0,0,0,0,0,0,0,0,0,0,0,0,0,0,0,0,0,0,0,0,0,0,0,0,0,0,0,0,0,0,0,0,0,0,0,0,0,0,0,0,0,0,0,0.1964,0.1964,0,0.1945,0.1945,0.1945,0.1921,0.1921,0.1921,0.1921,0.1888,0.1887,0.1887,0,0,0,0,0,0,0,0,0,0,0,0,0,0.1975,0.1975,0.1964,0.1964,0.1964,0.1945,0.1945,0.1944,0.1921,0.1921,0.1921,0.1921,0.1888,0.1887,0.1886,0,0,0,0,0,0,0,0,0,0,0,0,0,0.1963,0.1975,0.1964,0.1952,0.1951,0.1946,0.1945,0.1944,0.1921,0.1921,0.1921,0.192,0.1888,0.1887,0.1886,0.1884,0,0,0.1883,0.1883,0,0,0,0,0,0,0,0,0.1963,0.1962,0.1954,0.1953,0.1951,0.1937,0.1937,0.1924,0.1921,0.193,0.1921,0.192,0.1905,0.1903,0.1896,0.1883,0.1881,0.1883,0.1882,0.1882,0.1882,0,0,0,0,0,0,0,0.1964,0.1962,0.1954,0.1954,0.1952,0.1946,0.1944,0.1934,0.1917,0.1929,0.1928,0.193,0.1904,0.1897,0.1895,0.1881,0.1883,0.1882,0.1881,0.1881,0.1894,0.1895,0,0,0,0,0,0,0.1972,0.1963,0.1955,0.1954,0.196,0.1946,0.1944,0.194,0.1917,0.1914,0.193,0.1929,0.1899,0.1897,0.1894,0.1912,0.1882,0.1881,0.188,0.1893,0.1894,0.1895,0,0,0,0,0,0,0.1972,0.1971,0.1956,0.196,0.1958,0.1947,0.1943,0.194,0.1938,0.1918,0.1915,0.1932,0.1899,0.1896,0.1894,0.191,0.188,0.1879,0.1892,0.1893,0.1895,0.1935,0,0,0,0,0,0,0.1972,0.1971,0.1971,0.1961,0.1958,0.1959,0.1943,0.194,0.1941,0.1939,0.1919,0.1915,0.1899,0.1896,0.1893,0.1908,0.1879,0.189,0.1892,0.1894,0.1932,0.1937,0.1942,0,0,0,0,0,0.1973,0.1974,0.1971,0.197,0.1959,0.196,0.1958,0.1947,0.1941,0.1944,0.1932,0.1916,0.1906,0.1896,0.1892,0.1907,0.1889,0.1892,0.1894,0.193,0.1936,0.1942,0,0,0,0,0,0,0.1975,0.1971,0.1968,0.1967,0.1968,0.1957,0.1958,0.1953,0.1946,0.1944,0.1924,0.192,0.1927,0.1913,0.1903,0.1918,0.1897,0.1899,0.1926,0.1932,0.1937,0.1945,0.1878,0,0,0,0,0,0.1977,0.1978,0.1976,0.1976,0.1978,0.197,0.1969,0.1965,0.1958,0.1954,0.1942,0.1933,0.1933,0.1929,0.1924,0.1928,0.1928,0.1938,0.1943,0.1947,0.1953,0.1973,0.198,0.1902,0.1902,0.1902,0,0,0.1977,0.1977,0.1976,0.1977,0.1975,0.1982,0.1968,0.1972,0.1979,0.1952,0.1956,0.1949,0.1939,0.1946,0.1948,0.1936,0.197,0.195,0.1953,0.1957,0.1976,0.1983,0.199,0.1904,0.1904,0.1903,0,0,0.1982,0.1979,0.1984,0.199,0.1995,0.1992,0.1997,0.1994,0.1993,0.1997,0.1986,0.1992,0.198,0.1982,0.198,0.2011,0.1997,0.2008,0.2036,0.2055,0.2062,0.2067,0.208,0.2086,0.2008,0.2008,0.2008,0,0.1984,0.1988,0.1987,0.1998,0.2004,0.2001,0.2011,0.2013,0.201,0.2016,0.2003,0.201,0.2,0.202,0.203,0.2022,0.2027,0.2012,0.2062,0.2067,0.2072,0.2083,0.209,0.2011,0.201,0.201,0.201,0,0.1995,0.2001,0.2007,0.2019,0.2026,0.2035,0.2042,0.205,0.2049,0.205,0.2068,0.206,0.2064,0.2066,0.2055,0.209,0.208,0.2067,0.2046,0.2083,0.2092,0.2098,0.2014,0.2013,0.2012,0.2012,0,0,0.1988,0.201,0.2012,0.2019,0.2038,0.2041,0.2065,0.2081,0.2095,0.2099,0.2118,0.2126,0.2124,0.2123,0.2117,0.2133,0.2173,0.2117,0.2117,0.2127,0.2213,0.2195,0.22,0.2168,0.2169,0.217,0.2206,0,0.1997,0.2016,0.2029,0.2046,0.2055,0.2069,0.2088,0.2104,0.2117,0.2135,0.2145,0.2157,0.2145,0.2148,0.2167,0.2172,0.2191,0.2164,0.2177,0.2178,0.2156,0.2207,0.1992,0.2005,0.2211,0.2212,0.2213,0,0.2002,0.2015,0.2033,0.2054,0.206,0.2071,0.2099,0.2117,0.2152,0.2163,0.2188,0.2193,0.2226,0.2204,0.2243,0.2226,0.2227,0.2228,0.2229,0.2203,0.2171,0.2002,0.2008,0.2223,0.2222,0.2222,0.2221,0,0.1986,0.2015,0.2026,0.2035,0.2062,0.2073,0.2088,0.2122,0.214,0.2183,0.22,0.2237,0.2253,0.2271,0.2281,0.2264,0.2319,0.2292,0.2278,0.2276,0.2091,0.2072,0.2322,0.2322,0.2322,0.2322,0.2322,0,0.1984,0.1991,0.2017,0.2021,0.2032,0.2059,0.2076,0.2103,0.2145,0.2168,0.2209,0.2238,0.2271,0.2303,0.2304,0.232,0.2341,0.2298,0.2292,0.21,0.2082,0.2265,0.2258,0.2324,0.2323,0.2323,0.2323,0,0.1958,0.1979,0.1988,0.2015,0.2021,0.2026,0.2059,0.2075,0.2124,0.216,0.2176,0.2248,0.2294,0.2324,0.2358,0.2347,0.2361,0.2357,0.2133,0.2101,0.2296,0.2291,0.2345,0.2345,0.2345,0.2345,0.2345,0,0.1944,0.1948,0.197,0.1971,0.198,0.1994,0.2004,0.2054,0.2078,0.216,0.2179,0.2248,0.2281,0.2341,0.2318,0.2324,0.237,0.2144,0.2079,0.2314,0.2302,0.2297,0.2292,0.1842,0.1838,0.1835,0.1832,0,0.1913,0.1922,0.193,0.1931,0.1937,0.1943,0.1967,0.1985,0.2049,0.2079,0.2139,0.2177,0.2234,0.2146,0.2167,0.2146,0.2128,0.2078,0.2373,0.1886,0.1847,0.1833,0.1843,0.1801,0.1804,0.1806,0.1808,0.1809,0.1884,0.1879,0.1886,0.1883,0.189,0.1883,0.1857,0.1888,0.1904,0.1912,0.202,0.199,0.2009,0.1932,0.1881,0.1841,0.1996,0.1892,0.1899,0.191,0.1863,0.1827,0.1767,0.177,0.1773,0.1775,0.1777,0,0.1829,0.1835,0.1834,0.1817,0.1785,0.1813,0.1819,0.177,0.1739,0.177,0.1772,0.1626,0.1556,0.1587,0.147,0.1493,0.1444,0.1441,0.1332,0.1365,0.1394,0.1315,0.1077,0.1075,0.1073,0.1071,0,0,0.1798,0.1772,0.1769,0.1703,0.1693,0.1612,0.1591,0.1544,0.1531,0.1468,0.1416,0.1466,0.1537,0.127,0.1245,0.1138,0.1244,0.1098,0.1659,0.1564,0.1589,0.1657,0.1575,0,0,0,0,0]},{"header":{"parameterUnit":"m.s-1","parameterCategory":2,"la1":30.2991,"la2":30.254,"lo1":-89.0895,"lo2":-89.0444,"dy":0.0017,"dx":0.0017,"nx":28,"ny":28,"refTime":"2024-11-29T03:00:00:Z","depth":"2","parameterNumber":3,"parameterNumberName":"V-component_of_CURRENTS"},"data":[0,0,0,0,0,0,0,0,0,0,0,0,0,0,0,0,0,0,0,0,0,0,0,0,0,0,0,0,0,0,0,0,0,0,0,0,0,0,0,0,0,0,0,0,0,0,0,0,0,0,0,0,0,0,0,0,0,0,-0.0108,-0.0108,0,-0.0127,-0.0127,-0.0127,-0.0139,-0.0139,-0.0139,-0.0139,-0.0152,-0.0153,-0.0153,0,0,0,0,0,0,0,0,0,0,0,0,0,-0.0094,-0.0094,-0.0108,-0.0108,-0.0108,-0.0127,-0.0127,-0.0127,-0.0139,-0.0139,-0.0139,-0.0139,-0.0152,-0.0153,-0.0153,0,0,0,0,0,0,0,0,0,0,0,0,0,-0.0105,-0.0094,-0.0108,-0.0116,-0.0117,-0.0127,-0.0127,-0.0127,-0.0139,-0.0139,-0.0139,-0.0139,-0.0152,-0.0153,-0.0153,-0.0154,0,0,-0.0155,-0.0155,0,0,0,0,0,0,0,0,-0.0104,-0.0105,-0.0115,-0.0116,-0.0117,-0.013,-0.0127,-0.0136,-0.0139,-0.013,-0.0139,-0.0139,-0.0145,-0.0146,-0.0149,-0.0155,-0.0156,-0.0155,-0.0155,-0.0155,-0.0155,0,0,0,0,0,0,0,-0.0103,-0.0105,-0.0115,-0.0115,-0.0116,-0.0123,-0.0125,-0.0129,-0.0137,-0.0131,-0.0132,-0.0134,-0.0145,-0.0149,-0.0149,-0.0156,-0.0155,-0.0155,-0.0155,-0.0156,-0.016,-0.016,0,0,0,0,0,0,-0.01,-0.0104,-0.0115,-0.0116,-0.0111,-0.0123,-0.0125,-0.0126,-0.0137,-0.0139,-0.0134,-0.0135,-0.0148,-0.0149,-0.015,-0.0142,-0.0155,-0.0156,-0.0156,-0.016,-0.016,-0.016,0,0,0,0,0,0,-0.01,-0.0101,-0.0114,-0.011,-0.0113,-0.0123,-0.0124,-0.0126,-0.0129,-0.0139,-0.0141,-0.0135,-0.0148,-0.0149,-0.015,-0.0143,-0.0156,-0.0156,-0.016,-0.016,-0.016,-0.0132,0,0,0,0,0,0,-0.0099,-0.0101,-0.01,-0.011,-0.0113,-0.0115,-0.0124,-0.0127,-0.0131,-0.0132,-0.0141,-0.0142,-0.0148,-0.0149,-0.0151,-0.0144,-0.0157,-0.016,-0.016,-0.016,-0.0134,-0.0131,-0.0129,0,0,0,0,0,-0.0099,-0.0094,-0.01,-0.0102,-0.0112,-0.0115,-0.0117,-0.0125,-0.0131,-0.0129,-0.0135,-0.0142,-0.0148,-0.0149,-0.0151,-0.0144,-0.0161,-0.016,-0.016,-0.0135,-0.0132,-0.0129,0,0,0,0,0,0,-0.0085,-0.0096,-0.0102,-0.0101,-0.0106,-0.0117,-0.0116,-0.0123,-0.0128,-0.0128,-0.0139,-0.014,-0.014,-0.0146,-0.0147,-0.0145,-0.0156,-0.0156,-0.0136,-0.0134,-0.0132,-0.012,-0.0157,0,0,0,0,0,-0.0083,-0.0084,-0.0094,-0.0093,-0.0095,-0.0106,-0.0109,-0.0115,-0.012,-0.0123,-0.013,-0.0137,-0.014,-0.014,-0.0145,-0.0142,-0.0152,-0.014,-0.0138,-0.0136,-0.0128,-0.0137,-0.0134,-0.0158,-0.0158,-0.0158,0,0,-0.0078,-0.0083,-0.0084,-0.009,-0.0096,-0.009,-0.0108,-0.0109,-0.0102,-0.0123,-0.0117,-0.013,-0.0138,-0.0135,-0.0135,-0.0139,-0.0136,-0.0135,-0.0134,-0.0126,-0.0136,-0.0134,-0.0132,-0.0158,-0.0158,-0.0158,0,0,-0.0064,-0.0073,-0.0067,-0.0069,-0.0076,-0.008,-0.0079,-0.0089,-0.0092,-0.0091,-0.0103,-0.011,-0.0117,-0.0119,-0.0121,-0.011,-0.0126,-0.0116,-0.0092,-0.0101,-0.0099,-0.0097,-0.0112,-0.0112,-0.0112,-0.0112,-0.0112,0,-0.0056,-0.0049,-0.0065,-0.0058,-0.0053,-0.0072,-0.0059,-0.0064,-0.0072,-0.0069,-0.0085,-0.0095,-0.0106,-0.0096,-0.0095,-0.0104,-0.0116,-0.01,-0.0097,-0.0096,-0.0095,-0.0111,-0.0111,-0.0111,-0.0111,-0.0111,-0.0111,0,-0.0036,-0.0029,-0.0025,-0.002,-0.0019,-0.001,-0.0018,-0.0017,-0.0026,-0.0033,-0.0034,-0.0054,-0.0058,-0.0067,-0.0078,-0.0072,-0.0086,-0.0096,-0.0102,-0.009,-0.0108,-0.0109,-0.0109,-0.0109,-0.011,-0.011,0,0,-0.0015,-0.0011,-0.0007,0.0005,0.0004,0.0011,0.0022,0.0031,0.0044,0.0021,0.0035,0.0015,-0.0005,-0.0009,-0.0029,-0.0039,-0.0048,-0.0062,-0.0063,-0.0074,-0.0074,-0.009,-0.0092,-0.0059,-0.0059,-0.0059,-0.0092,0,0.0011,0.0036,0.003,0.0061,0.0076,0.0068,0.0084,0.0086,0.008,0.0086,0.0059,0.0058,0.002,0.0015,-0.0001,-0.0031,-0.0047,-0.0038,-0.0086,-0.0087,-0.01,-0.0093,-0.0065,-0.0093,-0.0093,-0.0093,-0.0093,0,0.0038,0.0053,0.0084,0.011,0.0117,0.0129,0.0156,0.0166,0.0165,0.0159,0.0144,0.012,0.0102,0.0065,0.0016,0.0023,-0.0023,-0.0054,-0.0056,-0.0078,-0.0104,-0.0104,-0.0094,-0.0095,-0.0094,-0.0094,-0.0094,0,0.007,0.0096,0.0124,0.0131,0.0152,0.0167,0.0179,0.0186,0.0207,0.02,0.0211,0.0177,0.0168,0.0108,0.0036,0.0026,-0.002,-0.0041,-0.01,-0.0102,-0.0091,-0.0092,-0.0079,-0.0078,-0.0078,-0.0078,-0.0078,0,0.0104,0.013,0.0139,0.0156,0.0198,0.0196,0.0238,0.0243,0.026,0.0294,0.0246,0.0266,0.0179,0.014,0.006,-0.0018,-0.0004,-0.0092,-0.0108,-0.0082,-0.0082,-0.0091,-0.0092,-0.008,-0.0079,-0.0079,-0.0079,0,0.0134,0.014,0.0177,0.0202,0.0213,0.024,0.028,0.0313,0.0316,0.0358,0.0358,0.0338,0.0287,0.0193,0.0104,0.0023,-0.0058,-0.0093,-0.0061,-0.0073,-0.0143,-0.0143,-0.016,-0.0161,-0.0162,-0.0162,-0.0163,0,0.0152,0.0172,0.0209,0.0237,0.0248,0.0285,0.0321,0.0338,0.0378,0.0408,0.044,0.0403,0.0391,0.025,0.0111,-0.0028,-0.0056,-0.0109,-0.0125,-0.0136,-0.015,-0.0148,-0.0147,-0.0103,-0.0103,-0.0103,-0.0103,0,0.0191,0.02,0.0229,0.0281,0.032,0.0367,0.0415,0.0455,0.0485,0.0522,0.0563,0.0553,0.0428,0.0308,0.0113,0.0017,-0.0086,-0.0113,-0.0121,-0.0088,-0.0085,-0.0098,-0.0098,-0.0102,-0.0102,-0.0102,-0.0102,-0.0102,0.0221,0.0246,0.0283,0.0331,0.0379,0.0438,0.0473,0.0535,0.06,0.0642,0.0644,0.0623,0.0495,0.0253,0.0104,-0.0069,-0.0076,-0.0145,-0.0144,-0.0143,-0.0132,-0.0129,-0.0154,-0.0154,-0.0155,-0.0155,-0.0155,0,0.0265,0.0285,0.0333,0.0387,0.044,0.0454,0.0532,0.0568,0.0639,0.0678,0.0697,0.0585,0.0457,0.0294,0.0051,-0.0095,-0.01,-0.0149,-0.0116,-0.0116,-0.0116,-0.0102,-0.0118,-0.0118,-0.0118,-0.0118,0,0,0.0291,0.0336,0.0352,0.0427,0.046,0.0516,0.0552,0.0612,0.0651,0.0687,0.0677,0.0652,0.0486,0.0321,0.0141,0.0007,-0.0031,-0.0025,-0.0041,0.0018,0.002,-0.01,-0.0077,0,0,0,0,0]}],[{"header":{"parameterUnit":"m.s-1","parameterCategory":2,"la1":30.2991,"la2":30.254,"lo1":-89.0895,"lo2":-89.0444,"dy":0.0017,"dx":0.0017,"nx":28,"ny":28,"refTime":"2024-11-29T03:00:00:Z","depth":"4","parameterNumber":2,"parameterNumberName":"U-component_of_CURRENTS"},"data":[0,0,0,0,0,0,0,0,0,0,0,0,0,0,0,0,0,0,0,0,0,0,0,0,0,0,0,0,0,0,0,0,0,0,0,0,0,0,0,0,0,0,0,0,0,0,0,0,0,0,0,0,0,0,0,0,0,0,0.1259,0.126,0,0.1296,0.1297,0.1297,0.1336,0.1337,0.1338,0.1338,0.1383,0.1383,0.1384,0,0,0,0,0,0,0,0,0,0,0,0,0,0.1214,0.1215,0.1259,0.126,0.126,0.1296,0.1297,0.1297,0.1336,0.1337,0.1338,0.1339,0.1383,0.1383,0.1384,0,0,0,0,0,0,0,0,0,0,0,0,0,0.1239,0.1215,0.1259,0.1285,0.1288,0.1296,0.1297,0.1297,0.1336,0.1337,0.1338,0.1339,0.1383,0.1383,0.1384,0.1368,0,0,0.1387,0.1387,0,0,0,0,0,0,0,0,0.1238,0.1241,0.1281,0.1284,0.1287,0.1314,0.1298,0.1322,0.1336,0.1316,0.1338,0.134,0.1361,0.1364,0.1366,0.1371,0.1372,0.1387,0.1387,0.1388,0.1388,0,0,0,0,0,0,0,0.1236,0.1239,0.1272,0.1282,0.1285,0.1293,0.1297,0.1302,0.1331,0.1318,0.1321,0.1328,0.1363,0.1365,0.1367,0.1373,0.1387,0.1387,0.1388,0.1388,0.1452,0.1453,0,0,0,0,0,0,0.1234,0.1238,0.1271,0.1274,0.1266,0.1293,0.1298,0.1303,0.1331,0.1337,0.1327,0.1329,0.1363,0.1366,0.1369,0.1428,0.1388,0.1388,0.1389,0.1451,0.1452,0.1454,0,0,0,0,0,0,0.1233,0.1237,0.127,0.1258,0.1263,0.1293,0.1298,0.1303,0.1334,0.1338,0.1344,0.1356,0.1364,0.1368,0.14,0.1427,0.1389,0.1389,0.145,0.1451,0.1453,0.1496,0,0,0,0,0,0,0.1231,0.1236,0.1251,0.1258,0.1264,0.1293,0.1297,0.1303,0.1335,0.134,0.1364,0.1368,0.1365,0.1399,0.1401,0.1427,0.139,0.1448,0.145,0.1453,0.1493,0.1499,0.1504,0,0,0,0,0,0.123,0.1241,0.1252,0.1257,0.128,0.1293,0.1298,0.1321,0.1336,0.1352,0.1372,0.1368,0.1415,0.14,0.1402,0.143,0.1447,0.145,0.1452,0.1491,0.1498,0.1504,0,0,0,0,0,0,0.1232,0.1247,0.1258,0.1276,0.1293,0.1301,0.1322,0.1335,0.1363,0.1376,0.138,0.1385,0.1424,0.142,0.1404,0.1456,0.1432,0.1435,0.146,0.1467,0.1472,0.1478,0.1391,0,0,0,0,0,0.1238,0.1254,0.1267,0.1285,0.1296,0.1314,0.1328,0.1344,0.1362,0.1377,0.1394,0.1414,0.1431,0.1445,0.1458,0.1481,0.1481,0.1502,0.1508,0.1512,0.1519,0.1542,0.155,0.1463,0.1463,0.1463,0,0,0.1245,0.1256,0.1266,0.1287,0.1304,0.1321,0.1326,0.1355,0.1377,0.1376,0.1422,0.1436,0.1443,0.1474,0.1491,0.1478,0.1537,0.1516,0.152,0.1524,0.1546,0.1554,0.1562,0.1465,0.1464,0.1464,0,0,0.1255,0.1277,0.1291,0.1307,0.1337,0.1346,0.136,0.1385,0.1409,0.1444,0.1454,0.1486,0.151,0.1523,0.153,0.1574,0.1567,0.1582,0.1614,0.1636,0.1644,0.165,0.1658,0.1665,0.1583,0.1584,0.1584,0,0.1267,0.1283,0.1299,0.1316,0.1336,0.136,0.1381,0.1403,0.1438,0.1461,0.1468,0.1523,0.1533,0.1569,0.1589,0.1587,0.1594,0.1586,0.1643,0.165,0.1656,0.1662,0.1669,0.1586,0.1586,0.1585,0.1585,0,0.1277,0.1303,0.1315,0.1344,0.1367,0.1391,0.1419,0.1453,0.1486,0.1506,0.1562,0.1578,0.1611,0.1621,0.162,0.1669,0.1659,0.1648,0.1625,0.1667,0.1671,0.1677,0.1589,0.1589,0.1588,0.1587,0,0,0.1266,0.1313,0.1321,0.1341,0.1387,0.1401,0.1449,0.149,0.1525,0.1568,0.1612,0.1653,0.1672,0.1682,0.169,0.1712,0.1759,0.1704,0.1704,0.1709,0.1806,0.1686,0.1681,0.1762,0.1763,0.1764,0.1791,0,0.1273,0.1307,0.1333,0.1375,0.1394,0.1437,0.1474,0.1519,0.1561,0.161,0.1645,0.169,0.1691,0.1717,0.1743,0.1759,0.1779,0.1753,0.1767,0.1767,0.1653,0.1685,0.1769,0.1795,0.1797,0.1798,0.1799,0,0.1268,0.1294,0.1335,0.1389,0.1404,0.1438,0.1506,0.1544,0.1613,0.1648,0.1703,0.1731,0.1785,0.1774,0.1828,0.1814,0.1819,0.1823,0.1824,0.1701,0.1659,0.1746,0.181,0.1809,0.1808,0.1807,0.1807,0,0.1235,0.1292,0.1328,0.1347,0.1412,0.1451,0.1493,0.1563,0.1601,0.1683,0.1719,0.1779,0.1819,0.1845,0.1865,0.1856,0.1907,0.1889,0.1783,0.1775,0.1856,0.1849,0.1922,0.1922,0.1922,0.1922,0.1921,0,0.1214,0.1244,0.1321,0.1338,0.1387,0.1443,0.1503,0.1553,0.1629,0.1669,0.1742,0.1774,0.1843,0.1877,0.1884,0.1851,0.1924,0.1793,0.1775,0.1872,0.1867,0.186,0.1852,0.1922,0.1922,0.1922,0.1922,0,0.1165,0.1216,0.126,0.1342,0.1372,0.141,0.1503,0.1539,0.1621,0.1678,0.1709,0.1791,0.1828,0.1871,0.191,0.1858,0.1847,0.1816,0.192,0.1907,0.1695,0.1689,0.1695,0.1691,0.1687,0.1684,0.1682,0,0.1139,0.1159,0.1254,0.1285,0.1329,0.1396,0.1438,0.1526,0.1563,0.1668,0.1683,0.1755,0.1795,0.1748,0.1807,0.1801,0.1781,0.1762,0.1724,0.169,0.1673,0.1673,0.1672,0.1677,0.1676,0.1675,0.1674,0,0.1091,0.1141,0.1179,0.1243,0.1297,0.134,0.141,0.1421,0.1516,0.1604,0.1608,0.1617,0.1651,0.1667,0.1676,0.1672,0.1766,0.1726,0.1732,0.1697,0.1668,0.1655,0.1658,0.1662,0.1664,0.1665,0.1666,0,0.1064,0.108,0.1142,0.1186,0.1249,0.1266,0.1307,0.134,0.1378,0.1486,0.1484,0.1554,0.163,0.1601,0.1611,0.1595,0.1567,0.1511,0.1528,0.1542,0.1479,0.142,0.1324,0,0,0,0,0,0.1029,0.1038,0.1078,0.1116,0.1173,0.1207,0.1279,0.1321,0.1407,0.137,0.1418,0.1437,0.1436,0.1477,0.1428,0.1554,0.1584,0.1491,0.1531,0.1598,0.1611,0.1551,0,0,0,0,0,0,0.1005,0.1043,0.1051,0.1048,0.1061,0.1107,0.1147,0.1205,0.1187,0.1278,0.1284,0.1352,0.1377,0.1447,0.1401,0.1413,0.1409,0.1539,0.1535,0.159,0.1602,0.1613,0.1556,0,0,0,0,0]},{"header":{"parameterUnit":"m.s-1","parameterCategory":2,"la1":30.2991,"la2":30.254,"lo1":-89.0895,"lo2":-89.0444,"dy":0.0017,"dx":0.0017,"nx":28,"ny":28,"refTime":"2024-11-29T03:00:00:Z","depth":"4","parameterNumber":3,"parameterNumberName":"V-component_of_CURRENTS"},"data":[0,0,0,0,0,0,0,0,0,0,0,0,0,0,0,0,0,0,0,0,0,0,0,0,0,0,0,0,0,0,0,0,0,0,0,0,0,0,0,0,0,0,0,0,0,0,0,0,0,0,0,0,0,0,0,0,0,0,0.0103,0.0103,0,0.009,0.009,0.009,0.008,0.008,0.008,0.008,0.0077,0.0077,0.0077,0,0,0,0,0,0,0,0,0,0,0,0,0,0.0113,0.0113,0.0103,0.0103,0.0102,0.009,0.009,0.009,0.008,0.008,0.008,0.008,0.0077,0.0077,0.0077,0,0,0,0,0,0,0,0,0,0,0,0,0,0.0106,0.0113,0.0103,0.0096,0.0095,0.0091,0.009,0.009,0.008,0.008,0.008,0.008,0.0077,0.0077,0.0077,0.0081,0,0,0.0077,0.0077,0,0,0,0,0,0,0,0,0.0106,0.0105,0.0097,0.0096,0.0095,0.0086,0.0093,0.0088,0.008,0.0086,0.008,0.0079,0.0081,0.0081,0.0079,0.0081,0.0081,0.0077,0.0077,0.0077,0.0077,0,0,0,0,0,0,0,0.0107,0.0106,0.0098,0.0097,0.0096,0.0092,0.009,0.0092,0.0085,0.0086,0.0085,0.0083,0.008,0.0079,0.0079,0.0081,0.0077,0.0077,0.0077,0.0077,0.0084,0.0084,0,0,0,0,0,0,0.0108,0.0106,0.0099,0.0098,0.01,0.0092,0.009,0.009,0.0085,0.0084,0.0083,0.0083,0.0079,0.0079,0.0079,0.0087,0.0077,0.0077,0.0077,0.0084,0.0084,0.0084,0,0,0,0,0,0,0.0108,0.0108,0.0099,0.0101,0.01,0.0092,0.0091,0.009,0.0087,0.0083,0.0082,0.0082,0.0079,0.0079,0.0082,0.0087,0.0077,0.0077,0.0084,0.0084,0.0084,0.0102,0,0,0,0,0,0,0.0109,0.0108,0.0109,0.0102,0.01,0.0099,0.0091,0.0089,0.0086,0.0085,0.0082,0.0081,0.0079,0.0082,0.0082,0.0087,0.0077,0.0084,0.0084,0.0084,0.0101,0.0102,0.0104,0,0,0,0,0,0.0109,0.0114,0.0109,0.0108,0.0102,0.01,0.0099,0.0092,0.0086,0.0088,0.0086,0.0081,0.0083,0.0082,0.0082,0.0087,0.0083,0.0084,0.0084,0.01,0.0102,0.0104,0,0,0,0,0,0,0.012,0.0113,0.0108,0.011,0.0105,0.0098,0.0099,0.0093,0.0092,0.0091,0.0085,0.0085,0.0089,0.0085,0.0084,0.0089,0.0082,0.0082,0.0094,0.0096,0.0097,0.0103,0.0077,0,0,0,0,0,0.0123,0.0124,0.0115,0.0117,0.0116,0.0107,0.0105,0.01,0.0097,0.0096,0.0093,0.009,0.009,0.0091,0.0091,0.0096,0.0082,0.0097,0.0099,0.01,0.0104,0.0086,0.0086,0.0085,0.0085,0.0085,0,0,0.0128,0.0124,0.0124,0.012,0.0116,0.012,0.0106,0.0105,0.011,0.0097,0.0103,0.0096,0.0092,0.0097,0.0098,0.0095,0.0092,0.0101,0.0102,0.0105,0.0086,0.0086,0.0086,0.0085,0.0085,0.0085,0,0,0.0141,0.0134,0.014,0.0138,0.0133,0.013,0.013,0.0122,0.012,0.0123,0.0115,0.011,0.0111,0.0109,0.0108,0.0117,0.01,0.0115,0.0128,0.0111,0.0111,0.011,0.0088,0.0086,0.0117,0.0117,0.0117,0,0.0147,0.0153,0.0142,0.0148,0.0151,0.0136,0.0146,0.0143,0.0138,0.0137,0.0129,0.0123,0.0118,0.0123,0.0125,0.0121,0.0105,0.0123,0.0112,0.0112,0.0111,0.0089,0.0086,0.0117,0.0117,0.0117,0.0117,0,0.0165,0.0171,0.0175,0.0179,0.018,0.0186,0.018,0.018,0.0172,0.0166,0.0164,0.0152,0.0148,0.0143,0.0138,0.0134,0.0121,0.0115,0.0108,0.0113,0.0088,0.0085,0.0119,0.0118,0.0118,0.0118,0,0,0.0182,0.0187,0.019,0.0198,0.0197,0.0201,0.0209,0.0212,0.0218,0.0203,0.0206,0.0197,0.018,0.0178,0.0165,0.0149,0.0128,0.0132,0.013,0.011,0.0082,0.0074,0.007,0.0117,0.0117,0.0117,0.0064,0,0.0201,0.0221,0.0218,0.0241,0.0251,0.0243,0.0254,0.0252,0.0244,0.0242,0.022,0.0218,0.0196,0.0193,0.0173,0.0143,0.0121,0.0142,0.0081,0.0079,0.0072,0.0067,0.0116,0.0062,0.0061,0.0061,0.006,0,0.0224,0.0234,0.0258,0.0273,0.0277,0.0288,0.03,0.0306,0.0297,0.0288,0.0272,0.0253,0.0233,0.0211,0.0155,0.0169,0.0127,0.0098,0.0095,0.0081,0.0066,0.0058,0.0054,0.0055,0.0055,0.0055,0.0056,0,0.0245,0.0264,0.0285,0.029,0.0303,0.0314,0.0321,0.032,0.0329,0.0315,0.0315,0.0281,0.0269,0.0214,0.0153,0.0152,0.0086,0.0077,0.0028,0.0026,0.0041,0.0042,0.0031,0.0031,0.0031,0.0031,0.0032,0,0.0268,0.0287,0.0297,0.0309,0.0336,0.0336,0.036,0.036,0.0362,0.0374,0.034,0.0338,0.0268,0.0224,0.016,0.0085,0.0088,0.0029,0.0013,0.0049,0.0051,0.0038,0.004,0.0029,0.003,0.003,0.0031,0,0.0286,0.0295,0.032,0.0338,0.0346,0.0364,0.0388,0.0404,0.0403,0.0416,0.0414,0.038,0.0321,0.0246,0.0157,0.01,0.0026,-0.0003,0.0038,0.0026,-0.0025,-0.0022,-0.0063,-0.0064,-0.0065,-0.0065,-0.0065,0,0.0296,0.031,0.0339,0.0357,0.0365,0.0391,0.0411,0.0421,0.0438,0.0441,0.045,0.0405,0.0369,0.024,0.0156,0.0031,0.0012,-0.0034,-0.003,-0.0023,-0.0034,-0.003,-0.0027,-0.0066,-0.0066,-0.0067,-0.0067,0,0.0311,0.0322,0.034,0.0374,0.0399,0.0429,0.0457,0.0472,0.0486,0.049,0.0474,0.0409,0.0343,0.0242,0.0145,0.0055,-0.0007,-0.004,-0.004,-0.0036,-0.0028,-0.0037,-0.0033,-0.0069,-0.0068,-0.0068,-0.0068,0,0.0319,0.0332,0.0356,0.0385,0.0421,0.0452,0.0467,0.0484,0.0499,0.0503,0.0496,0.0424,0.0385,0.0254,0.0166,0.0077,0.0051,0.0014,0.0011,0.0012,0.005,0.0073,0.0049,0,0,0,0,0,0.0322,0.0335,0.0364,0.0394,0.0432,0.0452,0.0492,0.0505,0.0521,0.0513,0.0505,0.0442,0.0314,0.0263,0.0173,0.0149,0.0032,0.0038,-0.0013,-0.008,-0.0078,-0.0047,0,0,0,0,0,0,0.0322,0.0348,0.0359,0.0397,0.0418,0.0458,0.0484,0.0497,0.0493,0.0498,0.0436,0.0408,0.0289,0.0365,0.0167,0.0142,0.0093,-0.0017,-0.0019,-0.0081,-0.0079,-0.0077,-0.0045,0,0,0,0,0]}]]